Home   Weather   Salem   Past weeks

Flag for USA Past Weather in Salem, Oregon, USA — Yesterday and Last 2 Weeks

48 °F

Passing clouds.

Feels Like: 46 °F
Forecast: 50 / 62 °F
Wind: 5 mph from Southwest

Location: McNary Field

Current Time: Oct 28, 2016 at 9:00:06 AM

Latest Report: Oct 28, 2016 at 7:56 AM

Visibility: 10 mi

Pressure: 29.92 "Hg

Humidity: 89%

Dew Point: 45 °F

Location of SalemLocation

Past Weather in Salem — Graph


Salem Temperature Yesterday

Maximum temperature yesterday: 57 °F (at 2:56 PM)
Minimum temperature yesterday: 51 °F (at 9:56 PM)
Average temperature yesterday: 54 °F

High & Low Weather Summary for the Past Weeks

High66 °F (Oct 14, 12:56 PM)100% (Oct 20, 10:00 PM)30.32 "Hg (Oct 20, 10:00 PM)
Low41 °F (Oct 19, 5:56 AM)49% (Oct 25, 1:56 PM)29.25 "Hg (Oct 15, 11:56 AM)
Average54 °F83%29.83 "Hg
* Reported Oct 13 6:56 AM — Oct 28 6:56 AM, Salem, Weather by CustomWeather, © 2016

Note: Actual official high and low records may vary slightly from our data, if they occured in-between our weather recording intervals... More about our weather records


Salem Weather History for the Previous 24 Hours

Scroll right to see more
Time TempWeatherWind HumidityBarometerVisibility
6:56 AM
Fri, Oct 28
51 °FPassing clouds.3 mph83%29.92 "Hg10 mi
5:56 AM50 °FOvercast.No wind89%29.91 "Hg10 mi
4:56 AM49 °FPassing clouds.5 mph90%29.91 "Hg10 mi
3:56 AM51 °FOvercast.No wind89%29.92 "Hg10 mi
2:56 AM52 °FMostly cloudy.No wind86%29.91 "Hg10 mi
1:56 AM52 °FMostly cloudy.5 mph83%29.91 "Hg10 mi
12:56 AM50 °FPassing clouds.5 mph89%29.90 "Hg10 mi
11:56 PM
Thu, Oct 27
52 °FMostly cloudy.6 mph86%29.90 "Hg10 mi
10:56 PM51 °FPartly cloudy.7 mph89%29.89 "Hg10 mi
9:56 PM51 °FPassing clouds.6 mph86%29.90 "Hg10 mi
8:56 PM53 °FMostly cloudy.6 mph83%29.89 "Hg10 mi
7:56 PM53 °FLight rain. Mostly cloudy.9 mph86%29.89 "Hg10 mi
6:56 PM55 °FMostly cloudy.8 mph72%29.88 "Hg10 mi
5:56 PM55 °FMostly cloudy.8 mph74%29.87 "Hg10 mi
4:56 PM56 °FMostly cloudy.8 mph70%29.87 "Hg10 mi
3:56 PM57 °FPassing clouds.10 mph67%29.86 "Hg10 mi
2:56 PM57 °FPartly sunny.12 mph69%29.86 "Hg10 mi
1:56 PM55 °FPartly sunny.17 mph77%29.88 "Hg10 mi
12:56 PM53 °FPartly sunny.14 mph86%29.89 "Hg10 mi
11:56 AM52 °FLight rain. More clouds than sun.13 mph86%29.90 "Hg10 mi
10:56 AM52 °FLight rain. Fog.12 mph86%29.89 "Hg6 mi
9:56 AM52 °FLight rain. More clouds than sun.13 mph86%29.88 "Hg10 mi
Weather by CustomWeather, © 2016

See weather overviewHow to use our weather pages